Flag for U.S.A. Weather past 2 weeks in Prudhoe Bay, Alaska, U.S.A.

Now
32 °F

Overcast.


Feels Like: 29 °F
Forecast: 31 / 36 °F
Wind: 3 mph from West

Location: Deadhorse Airport

Current Time: Sep 22, 2014 at 12:31:48 PM

Latest Report: Sep 22, 2014 at 11:53 AM


Visibility: 7 mi

Pressure: 29.60 "Hg

Humidity: 85%

Dew point: 28 °F

Location of Prudhoe BayLocation

Historic Weather in Prudhoe Bay — Graph

°F

Prudhoe Bay temperature yesterday

Maximum temperature yesterday: 37 °F (at 3:53 PM)
Minimum temperature yesterday: 33 °F (at 12:53 AM)
Average temperature yesterday: 34 °F

Past Weeks' High & Low Weather Summary

 TemperatureHumidityPressure
High54 °F (Sep 8, 3:53 PM)97% (Sep 8, 9:53 PM)30.23 "Hg (Sep 8, 9:53 PM)
Low28 °F (Sep 8, 2:53 AM)34% (Sep 8, 3:53 PM)29.46 "Hg (Sep 18, 6:53 AM)
Average36 °F88%29.81 "Hg
* Reported Sep 7 10:53 AM — Sep 22 10:53 AM, Prudhoe Bay, Weather by CustomWeather, © 2014

Note: Actual official high and low records may vary slightly from our data, if they occured in-between our weather recording intervals... More about our weather records

Advertising

Prudhoe Bay weather history for previous 24 hours

 ConditionsComfort  
Time TempWeatherWind HumidityBarometerVisibility
10:53 AM
Sep 22
32 °FLight snow. Ice fog.8 mph85%29.61 "Hg3 mi
9:53 AM32 °FMore clouds than sun.9 mph88%29.62 "Hg10 mi
8:53 AM31 °FMostly cloudy.8 mph92%29.62 "Hg10 mi
7:53 AM31 °FMostly cloudy.7 mph89%29.63 "Hg10 mi
6:53 AM31 °FOvercast.9 mph89%29.63 "Hg10 mi
5:53 AM31 °FOvercast.10 mph92%29.64 "Hg10 mi
4:53 AM32 °FMostly cloudy.12 mph88%29.65 "Hg10 mi
3:53 AM32 °FMostly cloudy.10 mph88%29.65 "Hg10 mi
2:53 AM32 °FLow clouds.13 mph92%29.65 "Hg10 mi
1:53 AM32 °FLight snow. Low clouds.13 mph92%29.65 "Hg9 mi
12:53 AM33 °FLight snow. Mostly cloudy.13 mph88%29.65 "Hg9 mi
11:53 PM
Sep 21
33 °FLow clouds.16 mph88%29.65 "Hg9 mi
10:53 PM33 °FFog.18 mph92%29.65 "Hg4 mi
9:53 PM34 °FFog.16 mph92%29.64 "Hg4 mi
8:53 PM33 °FMore clouds than sun.14 mph92%29.64 "Hg7 mi
7:53 PM34 °FMostly cloudy.14 mph88%29.64 "Hg9 mi
6:53 PM35 °FMostly cloudy.12 mph88%29.63 "Hg10 mi
5:53 PM36 °FLight rain. Fog.10 mph89%29.62 "Hg6 mi
4:53 PM37 °FMostly cloudy.10 mph86%29.62 "Hg10 mi
3:53 PM37 °FLight rain. Mostly cloudy.16 mph82%29.62 "Hg10 mi
2:53 PM36 °FLight rain. Mostly cloudy.13 mph85%29.63 "Hg7 mi
2:00 PM35 °FLight snow. Mostly cloudy.14 mph88%29.63 "Hg7 mi
12:53 PM34 °FLow clouds.15 mph88%29.63 "Hg10 mi
Weather by CustomWeather, © 2014

See weather overviewHow to use our weather pages